[[{"header":{"parameterUnit":"m.s-1","parameterCategory":1,"la1":30.2991,"la2":30.254,"lo1":-89.0895,"lo2":-89.0444,"dx":0.0017,"dy":0.0017,"nx":28,"ny":28,"refTime":"2022-12-29T15:00:00:Z","depth":0,"parameterNumber":2,"parameterNumberName":"U-component_of_WINDS"},"data":[0,0,0,0,0,0,0,0,0,0,0,0,0,0,0,0,0,0,0,0,0,0,0,0,0,0,0,0,0,0,0,0,0,0,0,0,0,0,0,0,0,0,0,0,0,0,0,0,0,0,0,0,0,0,0,0,0,0,-1.2949,-1.2951,0,-1.3116,-1.3118,-1.312,-1.3222,-1.3222,-1.3223,-1.3223,-1.3396,-1.34,-1.3404,0,0,0,0,0,0,0,0,0,0,0,0,0,-1.2722,-1.2726,-1.2949,-1.2951,-1.2953,-1.3115,-1.3118,-1.312,-1.3221,-1.3222,-1.3223,-1.3223,-1.3395,-1.34,-1.3405,0,0,0,0,0,0,0,0,0,0,0,0,0,-1.2848,-1.2727,-1.2949,-1.3023,-1.3032,-1.3115,-1.3118,-1.3121,-1.3221,-1.3222,-1.3223,-1.3224,-1.3393,-1.3399,-1.3405,-1.3428,0,0,-1.3424,-1.3427,0,0,0,0,0,0,0,0,-1.284,-1.2856,-1.301,-1.3018,-1.3028,-1.3149,-1.3101,-1.3224,-1.3221,-1.3149,-1.3223,-1.3224,-1.3313,-1.3326,-1.3356,-1.3436,-1.3444,-1.3425,-1.3429,-1.3431,-1.3433,0,0,0,0,0,0,0,-1.2832,-1.2849,-1.3015,-1.3012,-1.3023,-1.305,-1.3068,-1.3125,-1.3225,-1.3156,-1.3164,-1.3182,-1.3318,-1.335,-1.3361,-1.3446,-1.3425,-1.343,-1.3434,-1.3436,-1.3554,-1.3554,0,0,0,0,0,0,-1.2811,-1.2841,-1.301,-1.302,-1.2934,-1.3053,-1.3074,-1.3109,-1.3225,-1.3243,-1.3181,-1.3186,-1.3339,-1.3353,-1.3367,-1.3401,-1.3431,-1.3437,-1.3441,-1.3555,-1.3554,-1.3553,0,0,0,0,0,0,-1.2805,-1.2825,-1.3003,-1.2933,-1.2958,-1.3056,-1.3095,-1.3112,-1.3143,-1.3244,-1.3262,-1.3194,-1.334,-1.3358,-1.3412,-1.3409,-1.344,-1.3445,-1.3555,-1.3554,-1.3554,-1.3469,0,0,0,0,0,0,-1.2798,-1.2822,-1.2831,-1.2932,-1.2961,-1.3044,-1.3095,-1.3115,-1.3153,-1.3161,-1.3261,-1.3278,-1.3342,-1.3402,-1.3418,-1.3418,-1.345,-1.3556,-1.3555,-1.3554,-1.3473,-1.3465,-1.3459,0,0,0,0,0,-1.279,-1.2801,-1.2831,-1.2851,-1.2974,-1.3044,-1.306,-1.3132,-1.3153,-1.3163,-1.3228,-1.3275,-1.3406,-1.3407,-1.3426,-1.3427,-1.3557,-1.3555,-1.3554,-1.3476,-1.3467,-1.3459,0,0,0,0,0,0,-1.2698,-1.2816,-1.285,-1.2894,-1.2958,-1.3061,-1.3076,-1.3121,-1.3181,-1.3186,-1.3273,-1.3295,-1.334,-1.3389,-1.3388,-1.3455,-1.3487,-1.3489,-1.3421,-1.3414,-1.3407,-1.3394,-1.3455,0,0,0,0,0,-1.2683,-1.2728,-1.283,-1.2859,-1.2889,-1.2976,-1.301,-1.3059,-1.3129,-1.3157,-1.3226,-1.3292,-1.3349,-1.3384,-1.3442,-1.3481,-1.3504,-1.3491,-1.3484,-1.3478,-1.3479,-1.3503,-1.3498,-1.3549,-1.3549,-1.3549,0,0,-1.2652,-1.2722,-1.2746,-1.2842,-1.2897,-1.2943,-1.2999,-1.3045,-1.308,-1.3165,-1.3219,-1.3272,-1.3352,-1.3398,-1.3422,-1.3441,-1.347,-1.3477,-1.3471,-1.3475,-1.3501,-1.3496,-1.3492,-1.3548,-1.3548,-1.3548,0,0,-1.2619,-1.2676,-1.2707,-1.2761,-1.2844,-1.2902,-1.2909,-1.3005,-1.3043,-1.3099,-1.3163,-1.3207,-1.3302,-1.3357,-1.3397,-1.3385,-1.3431,-1.3401,-1.3366,-1.3388,-1.3384,-1.3381,-1.3376,-1.3374,-1.3402,-1.3402,-1.3402,0,-1.257,-1.2641,-1.2717,-1.276,-1.28,-1.2878,-1.291,-1.2959,-1.3056,-1.3083,-1.3103,-1.3224,-1.3284,-1.3343,-1.334,-1.3371,-1.3382,-1.339,-1.3379,-1.3376,-1.3375,-1.3371,-1.3369,-1.3397,-1.3398,-1.3398,-1.3399,0,-1.2577,-1.2625,-1.264,-1.2731,-1.2774,-1.281,-1.2893,-1.2927,-1.2974,-1.303,-1.3086,-1.3161,-1.3234,-1.3253,-1.3299,-1.3319,-1.3328,-1.3362,-1.3395,-1.3364,-1.3362,-1.3362,-1.3391,-1.3393,-1.3394,-1.3395,0,0,-1.249,-1.2622,-1.2626,-1.2668,-1.2765,-1.2805,-1.2846,-1.2917,-1.2944,-1.3009,-1.3046,-1.3125,-1.3157,-1.3202,-1.3256,-1.3275,-1.326,-1.3307,-1.3311,-1.3295,-1.3287,-1.326,-1.3257,-1.3292,-1.3292,-1.3292,-1.328,0,-1.247,-1.2546,-1.2616,-1.2667,-1.2712,-1.2787,-1.2823,-1.2887,-1.2941,-1.2988,-1.3049,-1.3103,-1.3141,-1.3169,-1.3192,-1.3257,-1.326,-1.3259,-1.3327,-1.3329,-1.3303,-1.3256,-1.3228,-1.3213,-1.328,-1.328,-1.328,0,-1.2458,-1.2518,-1.2572,-1.2665,-1.2687,-1.2717,-1.2788,-1.2833,-1.2907,-1.2945,-1.2995,-1.3051,-1.3099,-1.3128,-1.3195,-1.3193,-1.3226,-1.3262,-1.3263,-1.3271,-1.3301,-1.3262,-1.321,-1.3207,-1.3279,-1.3279,-1.3279,0,-1.2387,-1.2483,-1.2528,-1.2561,-1.267,-1.269,-1.2737,-1.2812,-1.285,-1.2913,-1.2938,-1.3006,-1.3043,-1.3094,-1.3167,-1.3182,-1.3227,-1.3262,-1.326,-1.3258,-1.3265,-1.3263,-1.3215,-1.3287,-1.3287,-1.3287,-1.3287,0,-1.2358,-1.2388,-1.2497,-1.2525,-1.2561,-1.2642,-1.2676,-1.273,-1.2796,-1.2836,-1.2906,-1.2942,-1.3037,-1.3085,-1.3142,-1.3189,-1.3205,-1.3238,-1.3252,-1.3231,-1.3226,-1.3252,-1.3255,-1.3286,-1.3287,-1.3287,-1.3287,0,-1.2285,-1.2359,-1.2413,-1.2511,-1.2537,-1.2559,-1.2645,-1.2675,-1.2733,-1.2782,-1.2799,-1.289,-1.295,-1.3029,-1.3114,-1.3153,-1.3192,-1.3216,-1.3166,-1.3174,-1.3167,-1.3166,-1.3134,-1.3134,-1.3205,-1.3204,-1.3204,0,-1.226,-1.2285,-1.2386,-1.2417,-1.2461,-1.2511,-1.255,-1.2631,-1.2669,-1.2755,-1.2775,-1.284,-1.2896,-1.2989,-1.3064,-1.3129,-1.3154,-1.3139,-1.3165,-1.3142,-1.3153,-1.315,-1.3153,-1.3131,-1.313,-1.3129,-1.3128,0,-1.2208,-1.2244,-1.2297,-1.2363,-1.2407,-1.2464,-1.2523,-1.2545,-1.2639,-1.2678,-1.274,-1.2783,-1.2869,-1.2933,-1.3008,-1.3058,-1.3109,-1.312,-1.3123,-1.31,-1.307,-1.3085,-1.3147,-1.312,-1.3121,-1.3121,-1.3122,-1.3122,-1.2159,-1.2184,-1.2259,-1.2316,-1.2369,-1.2423,-1.2455,-1.2517,-1.257,-1.2645,-1.2691,-1.275,-1.2825,-1.2931,-1.2978,-1.3027,-1.3046,-1.3051,-1.3052,-1.3051,-1.3043,-1.3063,-1.3041,-1.3042,-1.3042,-1.3042,-1.3042,0,-1.211,-1.2161,-1.2213,-1.2293,-1.2338,-1.2381,-1.245,-1.2484,-1.2535,-1.26,-1.2654,-1.2725,-1.2787,-1.2867,-1.2935,-1.2958,-1.2983,-1.2973,-1.2972,-1.2983,-1.3023,-1.3013,-1.2952,-1.2952,-1.2952,-1.2952,-1.2952,-1.2952,-1.2089,-1.2134,-1.2179,-1.2251,-1.2304,-1.2361,-1.2396,-1.2447,-1.2499,-1.2574,-1.2626,-1.2677,-1.2748,-1.2822,-1.2881,-1.2903,-1.2925,-1.2907,-1.2936,-1.2972,-1.298,-1.2987,-1.2979,-1.2912,-1.2912,-1.2892,-1.2892,-1.2892]},{"header":{"parameterUnit":"m.s-1","parameterCategory":1,"la1":30.2991,"la2":30.254,"lo1":-89.0895,"lo2":-89.0444,"dx":0.0017,"dy":0.0017,"nx":28,"ny":28,"refTime":"2022-12-29T15:00:00:Z","depth":0,"parameterNumber":3,"parameterNumberName":"V-component_of_WINDS"},"data":[0,0,0,0,0,0,0,0,0,0,0,0,0,0,0,0,0,0,0,0,0,0,0,0,0,0,0,0,0,0,0,0,0,0,0,0,0,0,0,0,0,0,0,0,0,0,0,0,0,0,0,0,0,0,0,0,0,0,5.6307,5.6308,0,5.6469,5.6471,5.6473,5.6482,5.648,5.6478,5.6476,5.664,5.6646,5.6652,0,0,0,0,0,0,0,0,0,0,0,0,0,5.6002,5.6007,5.6306,5.6308,5.631,5.6469,5.6471,5.6473,5.6482,5.648,5.6477,5.6475,5.6638,5.6645,5.6653,0,0,0,0,0,0,0,0,0,0,0,0,0,5.6146,5.6009,5.6306,5.6334,5.6338,5.6468,5.6471,5.6474,5.6483,5.648,5.6477,5.6474,5.6636,5.6645,5.6654,5.6766,0,0,5.6682,5.6686,0,0,0,0,0,0,0,0,5.6138,5.6157,5.6328,5.6332,5.6337,5.6452,5.6424,5.6572,5.6483,5.6428,5.6476,5.6473,5.658,5.6593,5.663,5.6774,5.6781,5.6683,5.6688,5.6692,5.6695,0,0,0,0,0,0,0,5.6128,5.615,5.6371,5.633,5.6336,5.6338,5.6355,5.6452,5.6517,5.6432,5.6433,5.6453,5.6582,5.6621,5.6634,5.6784,5.6682,5.669,5.6696,5.67,5.7031,5.7034,0,0,0,0,0,0,5.6113,5.6142,5.6366,5.6376,5.6229,5.6346,5.6365,5.6418,5.6516,5.6529,5.6455,5.6452,5.6607,5.6623,5.664,5.6781,5.6692,5.6701,5.6706,5.7028,5.7032,5.7035,0,0,0,0,0,0,5.6106,5.6133,5.6359,5.6259,5.6288,5.6354,5.6413,5.6423,5.6462,5.6533,5.6545,5.6483,5.6605,5.6627,5.6736,5.6786,5.6705,5.6713,5.7024,5.7029,5.7034,5.7061,0,0,0,0,0,0,5.6098,5.613,5.6174,5.626,5.6294,5.6453,5.6416,5.6428,5.6478,5.6477,5.6563,5.6575,5.6605,5.6722,5.6745,5.6797,5.672,5.702,5.7026,5.7032,5.7056,5.7067,5.7076,0,0,0,0,0,5.6087,5.6174,5.6176,5.6203,5.635,5.6456,5.6475,5.6508,5.6482,5.6527,5.6573,5.6572,5.6776,5.6733,5.6759,5.6815,5.7017,5.7024,5.7032,5.7052,5.7065,5.7075,0,0,0,0,0,0,5.6091,5.6186,5.6189,5.6307,5.6374,5.6457,5.6514,5.652,5.6594,5.659,5.6627,5.6647,5.6755,5.6795,5.6745,5.693,5.6894,5.6907,5.69,5.6913,5.6922,5.6911,5.6728,0,0,0,0,0,5.6106,5.6184,5.6263,5.636,5.6393,5.6448,5.6495,5.6516,5.6585,5.6613,5.6667,5.6734,5.6814,5.6865,5.6942,5.7062,5.7082,5.7113,5.7122,5.713,5.7141,5.721,5.7226,5.706,5.706,5.706,0,0,5.6137,5.6198,5.6246,5.6362,5.6416,5.6497,5.6471,5.6557,5.6618,5.6625,5.6733,5.6775,5.6852,5.6967,5.7021,5.7004,5.7192,5.714,5.7145,5.7153,5.7219,5.7235,5.7249,5.7065,5.7064,5.7063,0,0,5.6236,5.6289,5.6377,5.6432,5.6514,5.6551,5.6572,5.6655,5.6684,5.6792,5.68,5.6872,5.7008,5.7064,5.711,5.7231,5.7234,5.7255,5.7306,5.7373,5.7386,5.7398,5.7444,5.7459,5.7266,5.7266,5.7266,0,5.6264,5.6387,5.6421,5.6509,5.656,5.6572,5.6662,5.6713,5.6816,5.6851,5.6831,5.7004,5.7056,5.7186,5.7216,5.7252,5.7278,5.7246,5.7381,5.7394,5.7405,5.7449,5.7466,5.7268,5.7268,5.7268,5.7267,0,5.6419,5.6504,5.6565,5.6666,5.6724,5.6812,5.686,5.6914,5.693,5.6968,5.7079,5.7143,5.7234,5.7266,5.7281,5.7399,5.7387,5.7373,5.7338,5.7423,5.7465,5.7482,5.7271,5.7271,5.727,5.7269,0,0,5.6525,5.6646,5.6668,5.6715,5.6807,5.6873,5.6962,5.7052,5.71,5.717,5.7246,5.7361,5.7351,5.7403,5.7424,5.7482,5.7578,5.7463,5.7465,5.7484,5.7714,5.7725,5.7744,5.7579,5.7583,5.7585,5.7709,0,5.6636,5.6796,5.683,5.6968,5.7048,5.7061,5.7138,5.7203,5.7242,5.7315,5.7356,5.7439,5.7417,5.7449,5.7507,5.7554,5.7625,5.7545,5.7652,5.7655,5.7634,5.7766,5.7778,5.7891,5.7725,5.7728,5.773,0,5.6787,5.6863,5.7009,5.7094,5.7128,5.7197,5.7285,5.7354,5.7428,5.7452,5.7512,5.7527,5.762,5.7579,5.7708,5.7653,5.7699,5.7728,5.7733,5.7746,5.7699,5.7785,5.7928,5.7946,5.7756,5.7754,5.7752,0,5.6853,5.6992,5.7098,5.7138,5.7237,5.7286,5.733,5.7401,5.7454,5.753,5.7565,5.765,5.7697,5.7762,5.78,5.7766,5.7928,5.7888,5.7951,5.795,5.7986,5.7984,5.8141,5.8011,5.8011,5.8011,5.801,0,5.6975,5.7064,5.713,5.7195,5.7296,5.7335,5.7433,5.7477,5.754,5.7615,5.763,5.7699,5.7744,5.782,5.785,5.7954,5.7975,5.7997,5.8005,5.7998,5.7995,5.8029,5.8023,5.8015,5.8014,5.8013,5.8012,0,5.7066,5.7114,5.7231,5.7316,5.734,5.7411,5.7484,5.7548,5.7587,5.7681,5.7705,5.7766,5.7856,5.7901,5.8012,5.8032,5.8151,5.8151,5.8126,5.813,5.8191,5.8185,5.8377,5.8405,5.8255,5.8256,5.8257,0,5.7142,5.7212,5.7306,5.7357,5.7403,5.7485,5.754,5.758,5.7637,5.7728,5.7781,5.7872,5.7948,5.8091,5.8145,5.8231,5.8236,5.8297,5.8248,5.824,5.824,5.8236,5.8244,5.8306,5.8308,5.8309,5.831,0,5.7272,5.7293,5.7372,5.7461,5.7526,5.7597,5.7667,5.7708,5.7759,5.7822,5.7915,5.7974,5.8089,5.818,5.827,5.8314,5.8322,5.8324,5.8344,5.8338,5.8322,5.8334,5.8153,5.832,5.8319,5.8318,5.8318,5.8317,5.736,5.7424,5.7501,5.7589,5.7646,5.7712,5.7777,5.7825,5.7904,5.8002,5.802,5.812,5.8193,5.8315,5.8363,5.8441,5.8428,5.8455,5.8462,5.8469,5.8474,5.8308,5.8457,5.8457,5.8457,5.8456,5.8456,0,5.7494,5.7544,5.7625,5.7724,5.7793,5.7794,5.7872,5.793,5.8018,5.8087,5.8161,5.8269,5.8358,5.8419,5.8509,5.8561,5.8566,5.8583,5.8581,5.8592,5.8479,5.8455,5.8577,5.8577,5.8577,5.8577,5.8577,5.8577,5.7572,5.768,5.771,5.7847,5.7897,5.7996,5.8041,5.8101,5.8157,5.8277,5.8352,5.8391,5.8457,5.8553,5.8634,5.865,5.8684,5.8701,5.8717,5.8612,5.8599,5.8587,5.8564,5.8707,5.8708,5.8823,5.8824,5.8825]}]]